{"data":{"norad_id":58336,"intl_designator":"2023-174CJ","name":"LEMUR-2-JK0903EM1407","alt_names":[],"object_type":"PAYLOAD","status":"ACTIVE","operator":null,"country":"US","launch_date":"2023-11-11","launch_site_code":"AFWTR","launch_vehicle":null,"mission":null,"orbit_class":"UNKNOWN","rcs_meters":null,"size_class":null,"mass_kg":null,"dimensions":null,"purposes":["earth_obs"],"wikipedia_slug":null,"has_3d_model":false,"image_url":null,"decayed_at":null,"tle_current":{"epoch":"2026-05-24T23:35:20.114880Z","epoch_age_seconds":80020,"freshness":"FRESH","line1":"1 58336U 23174CJ  26144.98287170  .00024770  00000+0  43737-3 0  9997","line2":"2 58336  97.3902 234.8276 0005601 184.2183 175.9022 15.50344574142133","mean_motion":15.50344574,"eccentricity":0.0005601,"inclination_deg":97.3902,"raan_deg":234.8276,"arg_perigee_deg":184.2183,"mean_anomaly_deg":175.9022,"bstar":0.00043737,"rev_number":14213,"period_min":92.882577470162,"perigee_km":411.91399185199,"apogee_km":419.52446960165,"semimajor_km":6793.8562307268,"source":"CELESTRAK","updated_at":"2026-05-25T13:38:13.533458Z"}}}